Theta_e
315 315 313 314 315 316 316 316 315 315 316 317 317 318 319 321 323 323 323 322 324 323 325 326 326 325 320 311 310 318 327 328 324 320 312 309 306 304 301 304 304 303 300 302 301 303 302
315 313 313 313 314 315 316 315 315 316 316 316 317 318 319 320 322 322 323 322 320 320 322 325 325 324 315 303 316 319 319 323 321 316 313 310 308 310 304 303 303 306 303 304 303 302 301
313 312 312 312 313 314 315 315 315 315 315 316 316 317 318 318 320 321 321 322 322 320 319 324 325 320 311 308 319 322 322 321 316 316 312 312 313 309 307 302 305 305 302 305 305 304 300
313 311 312 312 312 314 314 314 314 314 315 315 316 316 317 317 318 319 320 320 320 321 320 319 324 318 306 316 320 317 317 314 315 315 314 314 315 308 306 305 305 302 303 298 304 303 304
313 312 311 311 312 313 314 313 313 313 314 314 314 315 316 318 318 318 319 319 319 320 320 320 315 312 304 316 311 316 316 311 312 313 314 315 313 307 304 302 298 299 296 298 300 305 306
310 311 310 311 312 313 314 313 313 313 313 313 314 314 315 316 317 317 318 319 318 318 316 316 315 306 306 305 310 312 315 314 310 310 308 308 308 303 302 299 292 294 295 297 298 301 301
310 309 309 310 310 313 313 313 313 313 313 313 313 313 314 314 314 316 315 312 305 303 307 302 304 304 306 310 312 309 312 311 310 307 300 304 298 296 299 301 302 303 300 298 301 300 301
308 307 309 309 310 310 309 312 312 311 312 313 312 312 312 312 313 315 314 303 304 309 299 305 307 308 308 310 302 306 312 304 303 297 302 299 296 303 303 302 302 300 299 299 298 297 300
307 307 308 308 310 310 307 308 312 311 312 312 312 312 311 311 313 312 307 306 315 313 299 300 306 305 304 308 301 302 307 305 301 297 298 296 299 304 303 300 298 299 298 299 297 296 296
305 307 307 308 309 308 308 311 311 311 311 311 311 311 311 310 307 307 304 311 315 313 289 292 299 303 305 306 299 307 309 305 300 296 298 298 303 301 300 300 300 292 299 298 293 293 290
305 306 307 308 309 308 309 311 310 310 310 311 311 311 310 311 305 302 305 313 313 307 278 294 297 309 307 300 300 301 308 304 297 297 298 296 298 299 297 299 303 295 298 296 294 291 290
306 306 307 307 308 307 310 310 309 309 309 310 310 310 309 307 306 307 310 313 305 285 279 286 296 297 298 299 299 302 301 304 306 299 298 296 299 302 301 303 303 297 294 293 291 289 283
305 306 307 307 307 303 310 309 307 306 308 309 309 308 307 306 299 308 309 302 283 279 287 283 289 296 295 294 295 297 295 294 293 289 289 293 296 296 301 295 297 296 293 284 282 283 285
305 306 307 307 307 306 306 307 307 308 308 308 307 306 305 305 308 309 303 287 277 284 285 289 293 295 291 294 293 295 294 292 296 296 291 288 286 293 297 297 292 292 293 287 281 283 287
304 305 306 307 305 306 305 307 307 307 307 307 306 303 300 302 305 306 292 279 282 286 288 289 293 289 289 292 292 293 293 293 296 298 291 288 287 294 297 297 297 290 289 292 286 279 283
304 305 305 305 306 305 306 306 306 306 305 304 299 296 295 303 305 299 287 281 284 289 292 293 286 290 286 288 289 291 291 296 295 297 300 294 286 290 293 296 295 295 296 287 288 282 281
304 306 305 305 306 306 305 305 304 304 304 302 297 289 299 305 303 292 282 282 287 290 294 292 289 289 289 288 292 291 291 295 297 294 298 296 291 285 291 290 289 290 289 290 290 289 284
302 302 305 306 306 306 304 304 304 304 303 300 292 285 299 303 287 286 285 286 290 288 292 294 294 294 291 293 290 290 290 293 298 295 292 292 290 284 285 290 296 295 292 292 288 284 286
301 303 305 305 305 305 304 304 304 303 302 296 287 289 297 299 282 284 288 288 290 288 288 292 290 293 295 291 288 289 292 295 298 296 293 292 287 281 282 286 289 290 293 294 293 289 285
300 301 303 305 304 305 305 304 304 303 301 297 290 284 289 292 290 287 286 287 287 292 288 291 291 295 292 289 291 287 291 293 297 298 295 295 288 287 284 287 289 286 290 292 292 286 288
300 300 298 304 304 305 305 304 304 303 302 296 289 285 286 282 284 288 289 288 286 286 288 291 290 292 290 285 286 288 290 290 295 297 295 294 286 287 287 289 289 290 290 290 289 292 288
300 300 300 300 303 304 305 304 303 302 300 292 285 285 286 285 287 287 287 285 286 287 287 287 289 291 292 288 289 287 290 291 290 294 293 291 285 288 284 288 289 287 290 292 292 292 292
300 300 299 300 301 303 304 304 303 302 296 290 290 290 289 286 286 285 286 287 287 289 291 292 294 291 290 291 294 296 296 295 294 293 291 289 287 286 282 286 287 283 287 290 291 293 294
301 301 300 299 300 302 303 303 303 301 296 293 292 291 286 282 284 286 288 289 287 288 288 290 294 292 293 297 296 295 294 294 295 295 295 289 286 286 281 282 278 289 290 294 292 293 295
300 300 299 299 299 299 300 301 303 301 298 294 294 291 286 281 284 284 287 288 289 288 289 289 291 293 297 295 288 286 285 285 284 291 294 294 290 282 281 283 286 288 287 289 288 289 295
300 300 299 298 298 298 299 302 301 301 299 296 295 295 289 283 282 284 284 289 286 285 285 286 291 293 295 290 287 283 280 282 282 284 289 292 293 289 280 281 278 286 289 292 294 285 295
299 299 299 298 299 299 299 301 302 300 299 295 294 296 289 283 284 284 283 286 291 289 287 287 288 289 292 287 283 282 281 283 282 280 281 285 286 284 282 283 284 290 290 292 285 289 292
299 299 298 298 299 300 300 301 301 300 299 296 292 295 291 283 284 285 285 283 287 290 287 288 289 289 288 286 284 281 282 282 283 285 285 284 284 284 283 282 280 290 288 288 293 291 293
298 298 298 298 298 299 299 300 301 300 299 296 291 295 294 286 285 288 287 288 286 286 288 287 289 291 293 287 284 283 280 282 284 282 286 284 289 286 288 288 293 291 293 292 292 293 292
Wind_Speed
27 26 25 26 26 26 25 25 22 20 19 18 16 16 13 17 20 20 17 14 14 13 13 16 17 16 12 9 11 5 13 21 16 14 13 13 13 8 8 11 10 15 9 6 6 7 3
27 27 26 25 25 25 25 25 22 20 19 19 17 14 12 16 20 21 20 18 17 12 13 18 18 21 11 21 3 5 12 18 16 17 17 13 10 10 10 6 15 12 10 7 5 6 4
29 28 26 25 25 24 25 24 22 21 21 19 16 15 13 16 20 21 18 18 19 16 12 16 17 18 16 18 7 12 16 17 10 15 16 13 4 4 1 4 3 5 12 6 11 7 4
29 28 26 25 25 24 25 25 22 21 20 19 18 16 14 15 18 17 16 17 17 18 16 12 15 18 10 5 8 17 16 13 9 6 6 5 4 6 4 2 4 8 7 16 7 9 7
28 26 25 25 26 26 26 25 22 21 20 19 19 16 13 16 15 17 16 16 15 13 20 14 8 15 11 11 15 17 17 18 14 7 4 5 3 7 2 8 4 4 11 17 11 4 8
29 25 25 25 25 25 27 25 23 22 20 20 19 16 15 13 13 14 15 15 14 12 13 8 9 13 13 17 13 13 11 21 14 14 7 7 4 8 6 11 14 9 12 7 17 6 8
28 24 22 24 25 25 25 25 24 23 22 21 20 17 16 14 12 14 11 5 6 9 9 14 5 7 13 13 17 11 20 17 13 15 11 8 9 21 20 17 11 15 15 19 8 5 8
27 24 25 23 26 19 19 25 25 25 24 23 21 18 16 15 12 15 13 8 19 3 11 20 16 11 11 19 9 18 21 13 17 13 14 8 20 19 14 16 14 10 14 13 6 3 6
25 23 23 24 26 23 23 22 26 26 25 23 21 18 16 14 11 9 15 20 6 5 6 14 13 16 18 22 13 22 21 15 20 16 17 18 11 11 15 13 10 11 18 15 5 5 1
24 23 21 25 24 26 29 31 27 25 24 22 21 20 17 13 8 7 12 15 10 3 5 7 14 10 16 17 10 21 14 10 7 13 18 11 11 17 14 18 17 8 4 7 10 5 4
21 21 23 22 26 25 29 30 27 24 22 22 21 20 18 16 8 9 6 9 8 3 14 15 17 10 19 18 21 16 4 4 19 13 7 10 17 19 21 19 18 4 9 8 4 5 3
19 18 21 24 24 19 27 27 26 21 19 20 20 19 16 8 3 4 4 11 8 7 9 10 8 15 22 10 17 10 7 4 10 15 5 4 1 10 10 13 18 16 13 13 8 3 7
15 18 20 22 22 13 33 28 24 22 19 20 21 19 13 6 5 8 4 6 8 9 3 9 12 19 32 16 10 25 12 14 12 14 13 5 8 2 9 13 17 8 11 4 3 5 8
14 15 23 23 21 25 25 24 23 22 22 21 21 17 9 4 4 8 5 5 8 7 10 3 11 28 15 25 19 21 24 13 9 13 14 12 8 11 5 9 9 7 8 7 11 9 5
13 16 19 25 27 23 23 24 24 23 23 22 20 5 3 4 4 3 4 5 6 4 9 14 19 23 13 15 10 19 25 23 13 20 14 16 7 2 4 7 16 5 5 4 4 2 1
9 16 22 19 29 27 25 25 24 23 22 20 5 4 3 7 8 3 3 15 6 8 8 18 13 13 15 13 17 16 25 23 16 13 11 14 8 0 4 6 5 13 14 6 2 6 7
10 21 23 25 21 27 28 26 26 24 24 18 6 5 6 12 7 3 7 9 6 8 14 21 12 10 17 25 24 26 29 20 17 14 9 14 8 4 6 6 9 8 6 2 1 3 5
8 9 22 29 27 28 28 26 26 25 23 11 4 6 6 11 6 3 6 8 6 3 15 9 10 13 24 30 19 14 21 12 18 15 18 4 7 7 3 1 7 4 9 9 7 7 5
16 14 19 25 29 29 28 26 24 25 19 5 6 2 1 4 7 7 5 6 10 6 9 9 8 7 21 17 13 8 14 6 21 20 20 11 6 9 4 4 4 10 10 12 4 1 9
20 13 15 25 30 27 26 26 23 24 16 3 4 5 3 4 1 9 7 5 7 11 8 6 6 17 20 12 7 10 18 7 20 22 7 7 6 9 12 9 13 8 17 18 15 5 17
21 19 16 13 30 28 26 25 21 19 16 3 1 3 1 8 10 9 11 10 7 6 7 6 3 22 24 8 9 12 10 9 10 14 7 6 5 6 4 11 11 16 21 20 22 30 15
22 20 18 13 19 22 25 23 20 16 12 3 4 4 2 1 6 11 10 9 5 5 9 11 17 24 22 18 13 29 22 15 15 14 12 3 5 8 4 10 7 8 19 26 30 29 25
22 21 15 16 15 17 21 20 18 16 5 3 2 1 1 4 5 9 8 8 4 8 10 8 21 26 25 12 13 19 14 14 18 22 15 11 7 6 7 9 7 6 21 23 22 24 25
19 23 19 15 15 15 14 15 17 11 5 3 2 2 2 3 2 8 6 11 7 16 2 6 22 18 8 19 20 17 15 12 21 18 12 16 7 2 4 5 8 1 2 18 25 18 24
17 18 18 15 14 12 11 9 11 11 8 4 2 2 2 3 2 2 4 8 9 7 5 6 8 3 22 23 15 9 4 5 4 4 14 11 7 5 7 10 6 8 6 10 14 17 20
15 16 16 14 13 11 8 12 12 12 15 5 3 1 1 4 4 1 1 3 4 4 3 3 4 4 5 3 5 13 7 6 8 4 2 8 7 5 4 7 10 1 1 2 11 8 16
12 14 15 14 13 11 9 13 13 10 11 5 2 3 1 2 1 2 2 1 2 4 3 5 3 0 2 3 5 6 4 1 10 13 10 9 7 12 4 6 5 6 5 6 6 5 2
13 14 15 14 14 13 12 12 12 13 10 4 2 3 1 2 1 1 1 1 1 2 6 6 6 2 1 4 5 4 5 7 5 8 13 11 9 7 4 6 13 8 6 10 2 3 2
14 15 16 15 14 15 13 12 14 9 9 5 2 1 2 3 2 2 1 1 2 5 3 1 1 10 4 6 2 6 4 5 6 7 2 5 7 8 11 6 2 11 3 3 2 3 1
Wind_Direction
228 226 230 233 229 224 222 218 215 217 220 215 220 225 234 221 206 202 201 203 203 197 201 188 182 163 163 209 221 160 181 188 188 194 197 188 181 197 192 201 176 219 177 152 145 89 80
226 223 223 228 227 222 217 216 216 213 215 210 216 218 221 213 202 199 194 188 186 173 189 194 185 161 200 224 141 159 182 171 182 189 202 196 196 192 220 200 208 195 182 165 181 113 71
223 219 223 218 225 220 214 212 213 212 211 211 212 211 215 218 199 197 192 193 193 192 178 197 180 173 215 212 186 150 147 161 172 191 189 196 175 136 192 145 171 159 183 192 204 178 91
216 219 218 219 217 215 209 208 207 209 208 208 209 205 209 207 199 193 191 194 205 201 209 198 199 181 221 150 169 149 146 127 154 180 224 173 143 94 357 73 112 193 220 202 168 175 166
213 216 215 219 211 210 204 203 204 206 205 207 205 198 192 191 187 189 195 199 202 206 202 207 216 193 198 134 173 169 161 147 143 125 151 144 141 140 77 203 121 212 209 216 208 223 179
210 209 212 218 212 203 201 199 198 201 201 201 192 181 181 175 183 189 194 193 194 205 213 247 233 195 154 174 149 159 163 147 143 131 119 184 175 179 172 205 191 168 194 204 216 184 213
206 209 218 210 216 205 201 198 194 193 197 190 183 175 177 174 186 189 178 167 183 204 202 216 251 176 159 127 130 172 153 141 150 160 174 177 187 204 191 198 231 199 204 210 214 124 209
203 204 211 210 211 201 191 201 194 193 191 182 177 174 175 178 188 188 184 200 203 138 205 222 212 200 156 137 140 158 162 144 163 176 155 159 219 200 196 200 214 177 198 206 126 103 220
187 200 210 210 205 196 172 224 188 189 185 173 169 169 168 171 182 174 201 210 183 277 235 196 187 180 161 163 152 167 175 153 165 167 187 196 192 171 178 190 189 193 205 192 185 136 280
188 197 209 210 200 191 184 189 181 182 177 171 168 167 162 152 150 178 214 212 232 289 230 217 185 191 163 148 160 164 174 145 153 174 177 222 177 176 194 195 189 184 219 148 134 145 223
186 201 206 203 190 191 187 174 173 176 175 174 172 167 167 167 132 188 177 170 140 225 218 167 174 180 154 168 128 184 180 160 156 148 160 176 174 184 191 197 189 133 151 130 135 107 9
186 195 206 202 200 189 180 167 165 172 179 174 172 169 164 183 177 149 194 146 144 219 233 158 175 186 153 145 163 136 152 67 145 139 86 105 359 171 175 176 165 126 88 61 52 73 244
192 197 198 190 182 199 164 158 165 177 181 173 171 170 167 156 192 199 97 152 205 209 203 158 175 168 166 161 138 157 161 150 156 150 166 141 158 109 164 103 142 128 147 105 180 198 246
177 178 188 173 165 183 148 157 166 174 171 161 160 160 162 173 72 130 130 143 256 143 180 190 182 156 155 152 164 172 158 163 169 178 148 173 177 171 166 159 164 153 170 168 200 211 224
174 171 171 174 155 157 160 164 162 161 158 154 150 144 114 189 176 172 131 235 265 186 143 157 173 152 141 158 136 159 180 177 166 166 154 176 158 124 125 153 149 156 187 67 108 45 227
188 190 174 152 158 164 161 158 148 148 141 132 112 124 169 179 164 116 177 208 255 301 159 161 165 166 155 151 143 168 171 187 177 197 144 158 120 125 130 95 44 184 149 155 124 194 241
120 162 163 163 178 151 143 141 140 139 135 130 109 158 167 164 139 158 191 220 258 268 242 169 158 160 169 166 165 167 171 169 168 174 179 165 124 123 142 190 165 144 173 93 158 242 243
79 165 174 177 160 149 141 142 142 141 143 132 138 167 146 164 160 166 216 195 180 270 276 206 156 181 164 167 161 158 181 169 157 155 157 122 111 127 101 271 166 143 163 177 193 186 255
52 147 166 154 152 146 147 144 146 150 146 141 141 115 149 207 176 196 185 185 205 188 262 194 167 182 159 155 148 120 153 142 164 173 161 170 123 116 101 63 318 210 194 205 192 78 204
77 60 152 155 155 150 151 154 158 158 164 113 128 136 150 218 145 194 181 198 218 212 243 250 148 138 146 139 90 149 154 159 175 176 116 138 155 177 185 187 136 184 193 197 200 199 227
102 89 76 150 160 154 153 160 159 163 163 107 120 154 241 178 192 208 184 168 192 212 220 229 141 156 149 129 127 145 136 120 165 163 147 154 130 129 89 146 152 192 194 187 201 225 212
116 107 113 116 114 151 149 151 152 147 138 94 144 160 163 196 136 168 189 204 193 190 187 206 161 166 166 175 185 172 157 160 167 182 163 144 131 141 74 151 156 170 202 198 208 225 233
129 118 109 105 103 137 148 148 148 154 137 115 128 72 218 145 152 183 208 187 201 213 227 243 170 165 191 183 156 158 139 145 155 167 164 159 137 140 164 162 141 264 208 200 210 217 224
124 120 117 108 104 99 142 152 152 146 129 115 146 136 132 152 222 205 179 183 210 211 282 266 167 170 160 116 97 80 64 112 154 169 166 154 118 93 133 146 210 163 24 202 204 212 221
123 120 117 117 110 103 103 132 153 128 115 95 130 146 163 129 221 234 179 185 188 223 241 271 137 154 149 124 110 100 48 75 7 142 185 182 143 118 154 206 311 267 176 162 185 238 227
124 125 119 115 106 98 87 130 131 121 108 85 65 31 106 145 200 49 147 181 158 170 126 304 12 344 100 91 100 135 160 135 162 117 359 167 197 148 164 182 216 218 98 238 164 282 212
133 128 119 113 107 101 112 140 129 126 111 95 67 330 111 107 126 199 200 96 171 139 137 97 157 303 86 143 124 146 128 104 157 156 159 161 181 203 183 217 262 232 163 168 150 214 129
139 133 121 108 104 91 106 130 131 118 118 86 76 321 28 88 96 201 330 322 331 244 156 148 141 250 115 112 134 150 131 194 115 151 167 161 156 181 176 211 242 155 120 189 165 89 116
137 128 117 107 102 103 101 100 130 119 118 112 114 5 37 78 112 174 179 156 261 307 337 338 171 174 165 115 109 119 128 166 148 161 231 167 179 166 194 190 187 182 126 124 88 94 99